TimeCST,TemperatureF,Dew PointF,Humidity,Sea Level PressureIn,VisibilityMPH,Wind Direction,Wind SpeedMPH,Gust SpeedMPH,PrecipitationIn,Events,Conditions,WindDirDegrees,DateUTC
12:53 AM,48.0,21.9,36,30.38,10.0,NNW,10.4,-,N/A,,Clear,340,2008-01-01 06:53:00
1:53 AM,45.0,23.0,42,30.41,10.0,NNW,8.1,-,N/A,,Clear,330,2008-01-01 07:53:00
2:53 AM,42.1,24.1,49,30.43,10.0,NNW,8.1,-,N/A,,Clear,330,2008-01-01 08:53:00
3:53 AM,39.9,25.0,55,30.46,10.0,NW,6.9,-,N/A,,Clear,320,2008-01-01 09:53:00
4:53 AM,37.9,25.0,60,30.49,10.0,NW,9.2,-,N/A,,Clear,320,2008-01-01 10:53:00
5:53 AM,37.0,24.1,59,30.53,10.0,NW,8.1,-,N/A,,Clear,320,2008-01-01 11:53:00
6:53 AM,36.0,24.1,62,30.56,10.0,NW,8.1,-,N/A,,Clear,320,2008-01-01 12:53:00
7:53 AM,37.9,24.1,57,30.58,10.0,NNW,12.7,-,N/A,,Clear,330,2008-01-01 13:53:00
8:53 AM,41.0,24.1,51,30.62,10.0,NNW,12.7,18.4,N/A,,Clear,330,2008-01-01 14:53:00
9:53 AM,44.1,21.0,40,30.64,10.0,NNW,13.8,21.9,N/A,,Clear,340,2008-01-01 15:53:00
10:53 AM,48.0,21.0,34,30.64,10.0,NNW,13.8,20.7,N/A,,Clear,330,2008-01-01 16:53:00
11:53 AM,51.1,19.0,28,30.62,10.0,NNW,12.7,20.7,N/A,,Clear,340,2008-01-01 17:53:00
12:53 PM,53.1,14.0,21,30.58,10.0,NNW,15.0,25.3,N/A,,Clear,340,2008-01-01 18:53:00
1:53 PM,54.0,15.1,22,30.57,10.0,NNW,13.8,23.0,N/A,,Clear,330,2008-01-01 19:53:00
2:53 PM,54.0,16.0,22,30.55,10.0,WNW,15.0,24.2,N/A,,Clear,300,2008-01-01 20:53:00
3:53 PM,53.1,18.0,25,30.56,10.0,WNW,13.8,24.2,N/A,,Clear,300,2008-01-01 21:53:00
4:53 PM,51.1,12.0,21,30.57,10.0,NW,21.9,27.6,N/A,,Clear,320,2008-01-01 22:53:00
5:53 PM,46.9,15.1,28,30.60,10.0,NW,12.7,-,N/A,,Clear,320,2008-01-01 23:53:00
6:53 PM,39.9,19.0,43,30.62,10.0,NW,5.8,-,N/A,,Clear,320,2008-01-02 00:53:00
7:53 PM,43.0,17.1,35,30.64,10.0,NW,10.4,-,N/A,,Clear,320,2008-01-02 01:53:00
8:53 PM,43.0,14.0,31,30.66,10.0,NNW,13.8,-,N/A,,Clear,330,2008-01-02 02:53:00
9:53 PM,39.0,16.0,39,30.69,10.0,NW,9.2,-,N/A,,Clear,320,2008-01-02 03:53:00
10:53 PM,37.9,16.0,41,30.70,10.0,NNW,9.2,-,N/A,,Clear,340,2008-01-02 04:53:00
11:53 PM,37.9,12.9,36,30.71,10.0,NNW,12.7,-,N/A,,Clear,330,2008-01-02 05:53:00